• în România
  • Lista ţărilor
  • Pe 7 zile
  • Temperatura apei
  • Hartă satelitară
  • Meteo pe hartă
  • Widget-uri
  • user-avatar
    Intrare

    Meteo pe oră la Malanville

    Astăzi, 17 Decembrie, Duminică

    Timp Temperatura Precipitaţii Vânt Presiune Umiditate
    00:00 +27°C° 0 mm 2 m/s 743 mmHg 14%
    01:00 +27°C° 0 mm 2 m/s 743 mmHg 15%
    02:00 +26°C° 0 mm 2 m/s 743 mmHg 16%
    03:00 +25°C° 0 mm 2 m/s 743 mmHg 17%
    04:00 +25°C° 0 mm 2 m/s 743 mmHg 17%
    05:00 +24°C° 0 mm 2 m/s 743 mmHg 18%
    06:00 +24°C° 0 mm 2 m/s 743 mmHg 19%
    07:00 +26°C° 0 mm 3 m/s 744 mmHg 17%
    08:00 +29°C° 0 mm 3 m/s 744 mmHg 15%
    09:00 +33°C° 0 mm 4 m/s 745 mmHg 12%
    10:00 +35°C° 0 mm 4 m/s 744 mmHg 11%
    11:00 +37°C° 0 mm 3 m/s 744 mmHg 9%
    12:00 +39°C° 0 mm 3 m/s 743 mmHg 8%
    13:00 +39°C° 0 mm 3 m/s 743 mmHg 8%
    14:00 +40°C° 0 mm 2 m/s 742 mmHg 7%
    15:00 +40°C° 0 mm 2 m/s 741 mmHg 7%
    16:00 +38°C° 0 mm 2 m/s 741 mmHg 8%
    17:00 +35°C° 0 mm 2 m/s 741 mmHg 9%
    18:00 +32°C° 0 mm 2 m/s 742 mmHg 11%
    19:00 +31°C° 0 mm 2 m/s 742 mmHg 11%
    20:00 +31°C° 0 mm 2 m/s 743 mmHg 11%
    21:00 +30°C° 0 mm 2 m/s 743 mmHg 11%
    22:00 +29°C° 0 mm 2 m/s 743 mmHg 12%
    23:00 +28°C° 0 mm 2 m/s 743 mmHg 12%

    Mâine, 18 Decembrie, Luni

    Timp Temperatura Precipitaţii Vânt Presiune Umiditate
    00:00 +27°C° 0 mm 2 m/s 743 mmHg 12%
    01:00 +27°C° 0 mm 2 m/s 743 mmHg 12%
    02:00 +26°C° 0 mm 2 m/s 742 mmHg 12%
    03:00 +25°C° 0 mm 2 m/s 742 mmHg 12%
    04:00 +25°C° 0 mm 2 m/s 742 mmHg 12%
    05:00 +24°C° 0 mm 2 m/s 743 mmHg 12%
    06:00 +24°C° 0 mm 2 m/s 743 mmHg 13%
    07:00 +26°C° 0 mm 2 m/s 743 mmHg 11%
    08:00 +29°C° 0 mm 3 m/s 744 mmHg 10%
    09:00 +33°C° 0 mm 3 m/s 744 mmHg 9%
    10:00 +35°C° 0 mm 3 m/s 744 mmHg 8%
    11:00 +37°C° 0 mm 2 m/s 743 mmHg 7%
    12:00 +39°C° 0 mm 2 m/s 742 mmHg 7%
    13:00 +39°C° 0 mm 1 m/s 741 mmHg 7%
    14:00 +40°C° 0 mm 1 m/s 741 mmHg 7%
    15:00 +37°C° 0 mm 0 m/s 740 mmHg 7%
    16:00 +35°C° 0 mm 0 m/s 740 mmHg 8%
    17:00 +34°C° 0 mm 1 m/s 740 mmHg 9%
    18:00 +31°C° 0 mm 1 m/s 740 mmHg 11%
    19:00 +31°C° 0 mm 1 m/s 741 mmHg 11%
    20:00 +30°C° 0 mm 1 m/s 742 mmHg 11%
    21:00 +30°C° 0 mm 1 m/s 742 mmHg 11%
    22:00 +30°C° 0 mm 2 m/s 742 mmHg 11%
    23:00 +29°C° 0 mm 2 m/s 742 mmHg 11%

    Poimâine, 19 Decembrie, Marţi

    Timp Temperatura Precipitaţii Vânt Presiune Umiditate
    00:00 +28°C° 0 mm 2 m/s 742 mmHg 11%
    01:00 +28°C° 0 mm 2 m/s 741 mmHg 11%
    02:00 +27°C° 0 mm 2 m/s 741 mmHg 12%
    03:00 +26°C° 0 mm 2 m/s 741 mmHg 12%
    04:00 +26°C° 0 mm 2 m/s 741 mmHg 12%
    05:00 +25°C° 0 mm 2 m/s 741 mmHg 12%
    06:00 +25°C° 0 mm 2 m/s 742 mmHg 12%
    07:00 +27°C° 0 mm 2 m/s 742 mmHg 11%
    08:00 +30°C° 0 mm 2 m/s 743 mmHg 10%
    09:00 +32°C° 0 mm 2 m/s 744 mmHg 9%
    10:00 +36°C° 0 mm 2 m/s 743 mmHg 8%
    11:00 +38°C° 0 mm 2 m/s 743 mmHg 7%
    12:00 +40°C° 0 mm 2 m/s 742 mmHg 6%
    13:00 +40°C° 0 mm 1 m/s 741 mmHg 6%
    14:00 +40°C° 0 mm 1 m/s 741 mmHg 6%
    15:00 +38°C° 0 mm 0 m/s 740 mmHg 6%
    16:00 +39°C° 0 mm 1 m/s 740 mmHg 7%
    17:00 +35°C° 0 mm 1 m/s 740 mmHg 9%
    18:00 +34°C° 0 mm 2 m/s 740 mmHg 10%
    19:00 +32°C° 0 mm 2 m/s 741 mmHg 10%
    20:00 +32°C° 0 mm 2 m/s 741 mmHg 10%
    21:00 +31°C° 0 mm 2 m/s 742 mmHg 10%
    22:00 +30°C° 0 mm 2 m/s 742 mmHg 10%
    23:00 +30°C° 0 mm 2 m/s 741 mmHg 10%

    20 Decembrie, Miercuri

    Timp Temperatura Precipitaţii Vânt Presiune Umiditate
    00:00 +29°C° 0 mm 2 m/s 741 mmHg 10%
    01:00 +29°C° 0 mm 2 m/s 741 mmHg 11%
    02:00 +28°C° 0 mm 2 m/s 741 mmHg 11%
    03:00 +28°C° 0 mm 2 m/s 740 mmHg 11%
    04:00 +27°C° 0 mm 2 m/s 741 mmHg 11%
    05:00 +27°C° 0 mm 2 m/s 741 mmHg 12%
    06:00 +26°C° 0 mm 1 m/s 741 mmHg 12%
    07:00 +29°C° 0 mm 2 m/s 742 mmHg 11%
    08:00 +31°C° 0 mm 2 m/s 743 mmHg 9%
    09:00 +34°C° 0 mm 3 m/s 743 mmHg 8%
    10:00 +36°C° 0 mm 3 m/s 743 mmHg 8%
    11:00 +38°C° 0 mm 2 m/s 742 mmHg 7%
    12:00 +39°C° 0 mm 2 m/s 742 mmHg 6%
    13:00 +39°C° 0 mm 2 m/s 741 mmHg 6%
    14:00 +40°C° 0 mm 1 m/s 741 mmHg 6%
    15:00 +37°C° 0 mm 0 m/s 740 mmHg 6%
    16:00 +37°C° 0 mm 1 m/s 740 mmHg 7%
    17:00 +34°C° 0 mm 1 m/s 741 mmHg 9%
    18:00 +32°C° 0 mm 1 m/s 741 mmHg 10%
    19:00 +32°C° 0 mm 1 m/s 741 mmHg 10%
    20:00 +31°C° 0 mm 1 m/s 742 mmHg 10%
    21:00 +30°C° 0 mm 1 m/s 742 mmHg 11%
    22:00 +30°C° 0 mm 1 m/s 742 mmHg 11%
    23:00 +30°C° 0 mm 1 m/s 742 mmHg 11%

    21 Decembrie, Joi

    Timp Temperatura Precipitaţii Vânt Presiune Umiditate
    00:00 +29°C° 0 mm 1 m/s 742 mmHg 11%
    01:00 +29°C° 0 mm 1 m/s 742 mmHg 11%
    02:00 +29°C° 0 mm 2 m/s 742 mmHg 11%
    03:00 +29°C° 0 mm 2 m/s 741 mmHg 11%
    04:00 +28°C° 0 mm 2 m/s 742 mmHg 12%
    05:00 +28°C° 0 mm 2 m/s 742 mmHg 12%
    06:00 +27°C° 0 mm 2 m/s 743 mmHg 13%
    07:00 +30°C° 0 mm 2 m/s 743 mmHg 11%
    08:00 +33°C° 0 mm 3 m/s 744 mmHg 10%
    09:00 +35°C° 0 mm 3 m/s 744 mmHg 9%
    10:00 +37°C° 0 mm 3 m/s 744 mmHg 8%
    11:00 +39°C° 0 mm 3 m/s 743 mmHg 8%
    12:00 +40°C° 0 mm 3 m/s 743 mmHg 7%
    13:00 +42°C° 0 mm 3 m/s 742 mmHg 7%
    14:00 +42°C° 0 mm 3 m/s 741 mmHg 8%
    15:00 +41°C° 0 mm 2 m/s 741 mmHg 8%
    16:00 +39°C° 0 mm 2 m/s 741 mmHg 9%
    17:00 +36°C° 0 mm 2 m/s 741 mmHg 11%
    18:00 +33°C° 0 mm 1 m/s 742 mmHg 12%
    19:00 +34°C° 0 mm 2 m/s 742 mmHg 12%
    20:00 +32°C° 0 mm 2 m/s 743 mmHg 12%
    21:00 +32°C° 0 mm 2 m/s 743 mmHg 12%
    22:00 +31°C° 0 mm 3 m/s 743 mmHg 12%
    23:00 +30°C° 0 mm 3 m/s 743 mmHg 12%

    22 Decembrie, Vineri

    Timp Temperatura Precipitaţii Vânt Presiune Umiditate
    00:00 +29°C° 0 mm 3 m/s 743 mmHg 12%
    01:00 +28°C° 0 mm 3 m/s 743 mmHg 13%
    02:00 +27°C° 0 mm 3 m/s 743 mmHg 13%
    03:00 +27°C° 0 mm 2 m/s 743 mmHg 13%
    04:00 +26°C° 0 mm 2 m/s 743 mmHg 14%
    05:00 +26°C° 0 mm 2 m/s 743 mmHg 14%
    06:00 +25°C° 0 mm 2 m/s 744 mmHg 14%
    07:00 +27°C° 0 mm 3 m/s 744 mmHg 13%
    08:00 +30°C° 0 mm 3 m/s 744 mmHg 11%
    09:00 +33°C° 0 mm 3 m/s 745 mmHg 10%
    10:00 +35°C° 0 mm 3 m/s 744 mmHg 9%
    11:00 +38°C° 0 mm 3 m/s 744 mmHg 8%
    12:00 +40°C° 0 mm 3 m/s 743 mmHg 7%
    13:00 +40°C° 0 mm 3 m/s 742 mmHg 7%
    14:00 +42°C° 0 mm 3 m/s 741 mmHg 7%
    15:00 +41°C° 0 mm 2 m/s 741 mmHg 7%
    16:00 +38°C° 0 mm 2 m/s 741 mmHg 9%
    17:00 +36°C° 0 mm 2 m/s 741 mmHg 10%
    18:00 +32°C° 0 mm 1 m/s 741 mmHg 12%
    19:00 +32°C° 0 mm 1 m/s 742 mmHg 12%
    20:00 +31°C° 0 mm 2 m/s 742 mmHg 12%
    21:00 +31°C° 0 mm 2 m/s 743 mmHg 12%
    22:00 +30°C° 0 mm 2 m/s 742 mmHg 13%
    23:00 +29°C° 0 mm 3 m/s 742 mmHg 13%
    Arată mai mult